Weather History for LFQQ - September, 2012

Change the Weather History Date:

Sunday, September 9, 2012

  Actual Average Record
Temperature  
Mean Temperature 68 °F -  
Max Temperature 85 °F 64 °F 85 °F (2012)
Min Temperature 51 °F 50 °F 47 °F (2013)
Cooling Degree Days 3    
Growing Degree Days 18 (Base 50)    
Moisture  
Dew Point 47 °F    
Average Humidity 51    
Maximum Humidity 88    
Minimum Humidity 16    
Precipitation  
Precipitation 0.00 in - - ()
Sea Level Pressure  
Sea Level Pressure 29.93 in    
Wind  
Wind Speed 3 mph ()    
Max Wind Speed 14 mph    
Max Gust Speed -    
Visibility 8.9 miles    
Events      
Averages and records for this station are not official NWS values.
T = Trace of Precipitation, MM = Missing Value Source: Averaged Metar Reports

Daily Weather History Graph

Daily Weather History Graph

Search for Another Location

Airport or City:

Trip Planner

Search our weather history database for the weather conditions in past years. The results will help you decide how hot, cold, wet, or windy it might be!

Date:

Astronomy

Sep. 09, 2012 Rise Set
Actual Time 7:14 AM CEST 8:14 PM CEST
Civil Twilight 6:41 AM CEST 8:47 PM CEST
Nautical Twilight 6:00 AM CEST 9:27 PM CEST
Astronomical Twilight 5:17 AM CEST 10:10 PM CEST
Moon 12:02 AM CEST (9/9) 4:15 PM CEST (9/9)
Length of Visible Light 14h 06m
Length of Day
12h 59m
Last Quarter, 42% of the Moon is Illuminated
Sep 9
Last Quarter
Sep 16
New
Sep 22
First Quarter
Sep 30
Full
Oct 8
Last Quarter

Hourly Weather History & Observations

Time (CEST) Temp. Dew Point Humidity Pressure Visibility Wind Dir Wind Speed Gust Speed Precip Events Conditions
12:00 AM 59.0 °F 48.2 °F 67% 30.04 in - ESE 2.3 mph - N/A   Clear
1:00 AM 57.2 °F 46.4 °F 67% 30.04 in - East 3.5 mph - N/A   Clear
2:00 AM 55 °F 47 °F 65% 30.04 in 19 mi Calm Calm - -  
2:00 AM 55.4 °F 46.4 °F 72% 30.04 in - Calm Calm - N/A   Clear
2:30 AM 53.6 °F 46.4 °F 77% 30.01 in 6.2 mi Calm Calm - N/A   Unknown
3:00 AM 53.6 °F 46.4 °F 77% 30.01 in 6.2 mi Calm Calm - N/A   Unknown
3:30 AM 53.6 °F 46.4 °F 77% 30.01 in 6.2 mi Calm Calm - N/A   Unknown
4:00 AM 51.8 °F 48.2 °F 88% 30.01 in 6.2 mi Calm Calm - N/A   Unknown
4:30 AM 51.8 °F 48.2 °F 88% 29.98 in 6.2 mi Calm Calm - N/A   Unknown
5:00 AM 51.8 °F 48.2 °F 88% 29.98 in - SSE 1.2 mph - N/A   Clear
6:00 AM 51.8 °F 48.2 °F 88% 29.98 in - ESE 2.3 mph - N/A   Clear
6:30 AM 53.6 °F 46.4 °F 77% 29.95 in - East 3.5 mph - N/A   Clear
7:00 AM 53.6 °F 46.4 °F 77% 29.95 in - East 2.3 mph - N/A   Clear
7:30 AM 53.6 °F 46.4 °F 77% 29.95 in - East 2.3 mph - N/A   Clear
8:00 AM 54 °F 47 °F 69% 29.96 in 12 mi Calm Calm - -  
8:00 AM 53.6 °F 46.4 °F 77% 29.95 in - Calm Calm - N/A   Clear
8:30 AM 55.4 °F 48.2 °F 77% 29.95 in - Variable 1.2 mph - N/A   Clear
9:00 AM 57.2 °F 48.2 °F 72% 29.95 in - Calm Calm - N/A   Clear
9:30 AM 60.8 °F 50.0 °F 68% 29.95 in - Variable 2.3 mph - N/A   Clear
10:00 AM 64.4 °F 51.8 °F 64% 29.95 in - South 3.5 mph - N/A   Clear
10:30 AM 68.0 °F 51.8 °F 56% 29.95 in - SSW 6.9 mph - N/A   Clear
11:00 AM 69.8 °F 51.8 °F 53% 29.95 in - SSE 3.5 mph - N/A   Clear
11:30 AM 71.6 °F 53.6 °F 53% 29.95 in - South 4.6 mph - N/A   Clear
12:00 PM 75.2 °F 51.8 °F 44% 29.92 in - South 3.5 mph - N/A   Clear
12:30 PM 77.0 °F 51.8 °F 41% 29.92 in - South 5.8 mph - N/A   Clear
1:00 PM 78.8 °F 51.8 °F 39% 29.92 in - South 6.9 mph - N/A   Clear
1:30 PM 80.6 °F 50.0 °F 34% 29.92 in - SSW 6.9 mph - N/A   Clear
2:00 PM 81 °F 49 °F 22% 29.91 in 31 mi SSW 8.1 mph - -   Clear
2:00 PM 80.6 °F 50.0 °F 34% 29.89 in - SSW 8.1 mph - N/A   Clear
2:30 PM 82.4 °F 48.2 °F 30% 29.89 in - South 9.2 mph - N/A   Clear
3:00 PM 84.2 °F 44.6 °F 25% 29.89 in - SSW 9.2 mph - N/A   Clear
3:30 PM 84.2 °F 42.8 °F 23% 29.89 in - SW 13.8 mph - N/A   Clear
4:00 PM 84.2 °F 42.8 °F 23% 29.86 in - SSW 11.5 mph - N/A   Clear
4:30 PM 84.2 °F 44.6 °F 25% 29.86 in - SSW 12.7 mph - N/A   Clear
5:00 PM 86.0 °F 42.8 °F 22% 29.86 in - SSW 11.5 mph - N/A   Clear
5:30 PM 86.0 °F 42.8 °F 22% 29.86 in - SW 10.4 mph - N/A   Clear
6:00 PM 86.0 °F 41.0 °F 20% 29.86 in - SW 11.5 mph - N/A   Clear
6:30 PM 84.2 °F 39.2 °F 20% 29.86 in - SW 10.4 mph - N/A   Clear
7:00 PM 84.2 °F 37.4 °F 19% 29.86 in - WSW 8.1 mph - N/A   Clear
7:30 PM 80.6 °F 39.2 °F 23% 29.86 in - WSW 5.8 mph - N/A   Clear
8:00 PM 78 °F 41 °F 16% 29.85 in 37 mi SW 3.5 mph - -   Clear
8:00 PM 78.8 °F 41.0 °F 26% 29.86 in - Variable 3.5 mph - N/A   Clear
8:30 PM 75.2 °F 41.0 °F 29% 29.86 in - South 1.2 mph - N/A   Clear
9:00 PM 71.6 °F 44.6 °F 38% 29.86 in - Calm Calm - N/A   Clear
9:30 PM 69.8 °F 46.4 °F 43% 29.89 in - West 9.2 mph - N/A   Clear
10:00 PM 68.0 °F 46.4 °F 46% 29.89 in - West 4.6 mph - N/A   Clear
10:30 PM 64.4 °F 48.2 °F 56% 29.86 in - Variable 3.5 mph - N/A   Clear
11:00 PM 64.4 °F 48.2 °F 56% 29.89 in - West 10.4 mph - N/A   Clear
11:30 PM 64.4 °F 53.6 °F 68% 29.89 in - West 12.7 mph - N/A   Clear